Location: El Limón
(10.3059°N, 67.6321°W)
Time: 13:33:48
(UTC+00:00)

Nadezhda 2 Rocket - Pass Details

Date: 17 December 2025
Orbit: 946 x 1011 km, 83.0° (Epoch: 12 January)

Event Time Altitude Azimuth Distance (km) Brightness Sun altitude
Rises 22:26:10 0° 6° (N) 3,605 7.2 -3.9°
Reaches altitude 10° 22:28:44 10° 11° (NNE) 2,663 6.5 -4.5°
Maximum altitude 22:34:36 50° 86° (E) 1,199 4.7 -5.8°
Drops below altitude 10° 22:40:30 10° 160° (SSE) 2,693 6.9 -7.1°
Sets 22:43:06 0° 165° (SSE) 3,648 7.6 -7.7°
